Change the Weather History Date:

Saturday, March 23, 2013

  Actual Average Record
Temperature  
Mean Temperature 28 °F -  
Max Temperature 33 °F 43 °F 67 °F (1979)
Min Temperature 23 °F 19 °F -8 °F (1934)
Degree Days  
Heating Degree Days 37    
Moisture  
Dew Point 20 °F    
Average Humidity 70    
Maximum Humidity 80    
Minimum Humidity 58    
Precipitation  
Precipitation 0.00 in - - ()
Sea Level Pressure  
Sea Level Pressure 29.64 in    
Wind  
Wind Speed 10 mph (West)    
Max Wind Speed 22 mph    
Max Gust Speed 32 mph    
Visibility 7 miles    
Events Snow    
Averages and records for this station are not official NWS values.
T = Trace of Precipitation, MM = Missing Value Source: NWS Daily Summary

Daily Weather History Graph

Daily Weather History Graph

Search for Another Location

Airport or City:

Trip Planner

Search our weather history database for the weather conditions in past years. The results will help you decide how hot, cold, wet, or windy it might be!

Date:

Astronomy

Mar. 23, 2013 Rise Set
Actual Time 6:46 AM EDT 7:05 PM EDT
Civil Twilight 6:16 AM EDT 7:34 PM EDT
Nautical Twilight 5:42 AM EDT 8:09 PM EDT
Astronomical Twilight 5:06 AM EDT 8:45 PM EDT
Moon 3:21 PM EDT (3/23) 4:29 AM EDT (3/23)
Length of Visible Light 13h 18m
Length of Day
12h 19m
Waxing Gibbous, 85% of the Moon is Illuminated
Mar 23
Waxing Gibbous
Mar 27
Full
Apr 3
Last Quarter
Apr 10
New
Apr 18
First Quarter

Hourly Weather History & Observations

Time (EDT) Temp. Windchill Dew Point Humidity Pressure Visibility Wind Dir Wind Speed Gust Speed Precip Events Conditions
12:15 AM 23.9 °F 16.8 °F 17.4 °F 76% 29.67 in 5.0 mi West 5.8 mph - N/A Snow Light Snow
12:35 AM 23.7 °F 19.3 °F 17.6 °F 77% 29.67 in 7.0 mi WSW 3.5 mph - N/A Snow Light Snow
12:55 AM 23.4 °F 17.4 °F 17.4 °F 78% 29.66 in 10.0 mi SW 4.6 mph - N/A Snow Light Snow
1:15 AM 23.7 °F 14.7 °F 17.4 °F 77% 29.66 in 10.0 mi West 8.1 mph - N/A Snow Light Snow
1:55 AM 24.4 °F 14.9 °F 18.1 °F 77% 29.65 in 10.0 mi West 9.2 mph - N/A Snow Light Snow
2:15 AM 24.4 °F 14.9 °F 18.5 °F 78% 29.65 in 5.0 mi West 9.2 mph 16.1 mph N/A Snow Light Snow
2:35 AM 24.8 °F 14.6 °F 19.2 °F 79% 29.64 in 7.0 mi West 10.4 mph 19.6 mph N/A Snow Light Snow
2:55 AM 25.2 °F 16.5 °F 19.4 °F 79% 29.63 in 7.0 mi West 8.1 mph - N/A Snow Light Snow
3:15 AM 24.6 °F 16.7 °F 19.0 °F 79% 29.62 in 7.0 mi WSW 6.9 mph - N/A Snow Light Snow
3:35 AM 24.1 °F 17.0 °F 18.9 °F 80% 29.61 in 10.0 mi WSW 5.8 mph - N/A   Overcast
3:55 AM 23.9 °F 14.2 °F 18.5 °F 80% 29.60 in 10.0 mi WSW 9.2 mph - N/A   Overcast
4:35 AM 24.6 °F 17.7 °F 19.2 °F 80% 29.60 in 10.0 mi West 5.8 mph - N/A   Mostly Cloudy
4:55 AM 25.3 °F 18.5 °F 18.9 °F 76% 29.61 in 10.0 mi WNW 5.8 mph - N/A   Overcast
5:15 AM 25.7 °F 18.0 °F 19.0 °F 76% 29.61 in 10.0 mi West 6.9 mph - N/A Snow Light Snow
5:55 AM 25.3 °F 16.0 °F 19.8 °F 79% 29.61 in 1.8 mi WNW 9.2 mph 16.1 mph N/A Snow Light Snow
6:15 AM 25.2 °F 13.9 °F 19.8 °F 80% 29.61 in 10.0 mi West 12.7 mph 19.6 mph N/A   Overcast
6:55 AM 24.8 °F 14.6 °F 18.5 °F 77% 29.61 in 10.0 mi WNW 10.4 mph - N/A   Overcast
7:15 AM 24.8 °F 15.3 °F 19.4 °F 80% 29.60 in 1.8 mi WNW 9.2 mph - N/A Snow Light Snow
7:35 AM 25.2 °F 15.7 °F 19.4 °F 79% 29.61 in 7.0 mi WNW 9.2 mph - N/A Snow Light Snow
7:55 AM 25.7 °F 15.1 °F 18.5 °F 74% 29.61 in 10.0 mi WNW 11.5 mph 16.1 mph N/A   Overcast
8:15 AM 26.2 °F 15.2 °F 18.1 °F 71% 29.60 in 10.0 mi West 12.7 mph 17.3 mph N/A   Overcast
8:35 AM 26.2 °F 16.4 °F 17.6 °F 70% 29.60 in 10.0 mi West 10.4 mph 19.6 mph N/A   Overcast
8:55 AM 26.6 °F 15.2 °F 18.1 °F 70% 29.60 in 7.0 mi WNW 13.8 mph 18.4 mph N/A   Overcast
9:15 AM 26.2 °F 15.8 °F 18.3 °F 72% 29.60 in 4.0 mi WNW 11.5 mph 21.9 mph N/A   Haze
9:35 AM 26.6 °F 14.7 °F 17.8 °F 69% 29.59 in 5.0 mi West 15.0 mph 24.2 mph N/A Snow Light Snow
9:55 AM 27.3 °F 17.1 °F 17.8 °F 67% 29.58 in 7.0 mi West 11.5 mph 19.6 mph N/A   Overcast
10:15 AM 27.9 °F 15.5 °F 18.0 °F 66% 29.58 in 2.5 mi West 17.3 mph 28.8 mph N/A Snow Light Snow
10:55 AM 28.2 °F 17.2 °F 19.6 °F 70% 29.57 in 2.0 mi West 13.8 mph 24.2 mph N/A Snow Light Snow
11:15 AM 27.5 °F 16.3 °F 20.1 °F 74% 29.58 in 2.0 mi West 13.8 mph 26.5 mph N/A Snow Light Snow
11:35 AM 27.5 °F 17.4 °F 19.8 °F 73% 29.58 in 3.0 mi West 11.5 mph 23.0 mph N/A Snow Light Snow
11:55 AM 28.2 °F 16.3 °F 19.6 °F 70% 29.58 in 2.5 mi West 16.1 mph 23.0 mph N/A Snow Light Snow
12:15 PM 28.2 °F 14.5 °F 19.6 °F 70% 29.58 in 2.0 mi West 21.9 mph 29.9 mph N/A Snow Light Snow
12:35 PM 28.6 °F 16.0 °F 20.1 °F 71% 29.59 in 2.5 mi West 18.4 mph 25.3 mph N/A Snow Light Snow
12:55 PM 29.3 °F 19.1 °F 20.7 °F 70% 29.59 in 3.0 mi West 12.7 mph 24.2 mph N/A Snow Light Snow
1:15 PM 29.3 °F 17.7 °F 20.3 °F 69% 29.60 in 3.0 mi West 16.1 mph 25.3 mph N/A Snow Light Snow
1:35 PM 29.3 °F 18.2 °F 20.8 °F 71% 29.60 in 3.0 mi West 15.0 mph 21.9 mph N/A Snow Light Snow
1:55 PM 29.3 °F 18.6 °F 21.2 °F 72% 29.60 in 2.0 mi West 13.8 mph 19.6 mph N/A Snow Light Snow
2:15 PM 30.2 °F 20.8 °F 21.0 °F 69% 29.60 in 5.0 mi WSW 11.5 mph 16.1 mph N/A Snow Light Snow
2:35 PM 31.5 °F 20.9 °F 19.8 °F 62% 29.60 in 7.0 mi West 15.0 mph 28.8 mph N/A   Overcast
2:55 PM 32.5 °F 21.5 °F 19.4 °F 58% 29.60 in 7.0 mi West 17.3 mph 27.6 mph N/A   Overcast
3:15 PM 32.9 °F 21.6 °F 19.6 °F 58% 29.61 in 7.0 mi West 18.4 mph 28.8 mph N/A   Overcast
3:35 PM 32.5 °F 21.2 °F 19.8 °F 59% 29.62 in 7.0 mi West 18.4 mph 25.3 mph N/A   Overcast
3:55 PM 32.9 °F 21.0 °F 19.9 °F 59% 29.62 in 7.0 mi West 20.7 mph 32.2 mph N/A   Overcast
4:15 PM 33.4 °F 23.1 °F 20.1 °F 58% 29.63 in 7.0 mi WNW 16.1 mph 26.5 mph N/A Snow Light Snow
4:35 PM 32.4 °F 20.9 °F 20.1 °F 61% 29.64 in 10.0 mi West 18.4 mph 24.2 mph N/A   Overcast
4:55 PM 32.0 °F 21.6 °F 19.9 °F 61% 29.65 in 10.0 mi West 15.0 mph 27.6 mph N/A   Overcast
5:15 PM 32.0 °F 23.0 °F 20.3 °F 62% 29.65 in 10.0 mi West 11.5 mph 28.8 mph N/A Snow Light Snow
5:35 PM 31.8 °F 21.8 °F 20.8 °F 64% 29.66 in 10.0 mi West 13.8 mph 28.8 mph N/A   Overcast
5:55 PM 31.8 °F 21.0 °F 20.3 °F 62% 29.66 in 10.0 mi West 16.1 mph 23.0 mph N/A   Overcast
6:15 PM 31.8 °F 22.3 °F 20.1 °F 62% 29.67 in 10.0 mi West 12.7 mph 29.9 mph N/A   Overcast
6:35 PM 31.6 °F 21.2 °F 21.2 °F 65% 29.68 in 7.0 mi WNW 15.0 mph 26.5 mph N/A Snow Light Snow
6:55 PM 31.1 °F 19.7 °F 21.6 °F 68% 29.68 in 7.0 mi West 17.3 mph 25.3 mph N/A Snow Light Snow
7:15 PM 30.7 °F 19.6 °F 21.9 °F 70% 29.69 in 5.0 mi WNW 16.1 mph 23.0 mph N/A Snow Light Snow
7:35 PM 30.7 °F 20.4 °F 21.9 °F 70% 29.70 in 5.0 mi WNW 13.8 mph 20.7 mph N/A Snow Light Snow
7:55 PM 30.7 °F 20.4 °F 22.1 °F 70% 29.71 in 7.0 mi West 13.8 mph 21.9 mph N/A Snow Light Snow
8:15 PM 30.7 °F 20.9 °F 22.1 °F 70% 29.72 in 10.0 mi WNW 12.7 mph 19.6 mph N/A Snow Light Snow
8:55 PM 31.1 °F 25.4 °F 21.2 °F 67% 29.73 in 10.0 mi WNW 5.8 mph 20.7 mph N/A   Overcast
9:15 PM 31.3 °F 23.9 °F 21.0 °F 66% 29.74 in 10.0 mi West 8.1 mph - N/A   Overcast
9:55 PM 31.6 °F 24.4 °F 20.3 °F 63% 29.74 in 10.0 mi WNW 8.1 mph 20.7 mph N/A   Overcast
10:15 PM 31.6 °F 21.6 °F 20.3 °F 63% 29.73 in 10.0 mi WNW 13.8 mph 20.7 mph N/A   Overcast
10:35 PM 31.5 °F 19.8 °F 20.3 °F 63% 29.73 in 10.0 mi West 18.4 mph 24.2 mph N/A   Overcast
10:55 PM 31.5 °F 20.9 °F 20.3 °F 63% 29.73 in 10.0 mi WNW 15.0 mph 23.0 mph N/A   Overcast
11:15 PM 31.5 °F 20.5 °F 20.3 °F 63% 29.73 in 10.0 mi WNW 16.1 mph 23.0 mph N/A   Overcast
11:35 PM 31.1 °F 21.4 °F 20.3 °F 64% 29.73 in 10.0 mi West 12.7 mph 19.6 mph N/A   Overcast
11:55 PM 31.1 °F 20.5 °F 20.3 °F 64% 29.73 in 10.0 mi West 15.0 mph 19.6 mph N/A   Overcast